FW2874 Weather Reports


Display with metric or nautical units.
time (UTC)temp
F
wind
direction
speed
MPH
gust
MPH
rain 1hr
in
rain 24hr
in
rain mn
in
humidity
%
barometer
mb
20191213103107 34 195 2.0 5.0 0.00 0.02 0.00 63
20191213101701 35 199 2.0 5.0 0.00 0.02 0.00 62
20191213100105 34 229 1.0 4.0 0.00 0.02 0.00 63
20191213094719 34 182 3.0 5.0 0.00 0.02 0.00 64
20191213093048 34 184 2.0 6.0 0.00 0.02 0.00 64
20191213091630 34 177 0.0 5.0 0.00 0.02 0.00 63
20191213090039 34 192 2.0 6.0 0.00 0.02 0.00 62
20191213084526 35 186 2.0 5.0 0.00 0.02 0.00 61
20191213083006 35 191 3.0 7.0 0.00 0.02 0.00 61
20191213081646 35 196 5.0 9.0 0.00 0.02 0.00 61
20191213080235 35 198 4.0 10.0 0.00 0.02 0.00 60
20191213074757 36 192 5.0 10.0 0.00 0.02 0.00 59
20191213073226 36 199 4.0 10.0 0.00 0.02 0.00 59
20191213071637 36 205 5.0 10.0 0.00 0.02 0.00 59
20191213070227 36 166 4.0 9.0 0.00 0.02 0.00 59
20191213064558 37 215 6.0 9.0 0.00 0.02 0.00 59
20191213063114 37 209 4.0 12.0 0.00 0.02 0.00 58
20191213061638 37 204 8.0 12.0 0.00 0.02 0.00 57
20191213060056 37 184 5.0 9.0 0.00 0.02 0.02 57
20191213054536 37 202 5.0 10.0 0.00 0.02 0.02 58
20191213053045 37 180 6.0 10.0 0.00 0.02 0.02 57
20191213051544 38 203 7.0 12.0 0.00 0.02 0.02 57
20191213050038 38 198 6.0 13.0 0.00 0.02 0.02 56
20191213044524 38 215 7.0 12.0 0.00 0.02 0.02 56
20191213043118 38 202 8.0 14.0 0.00 0.02 0.02 56
20191213041539 39 162 8.0 19.0 0.00 0.02 0.02 55
20191213040043 39 185 6.0 15.0 0.00 0.02 0.02 55
20191213034651 39 171 8.0 18.0 0.00 0.02 0.02 55
20191213033022 39 210 8.0 18.0 0.00 0.02 0.02 55
20191213031539 39 187 8.0 15.0 0.00 0.02 0.02 55
20191213030016 39 165 7.0 15.0 0.00 0.02 0.02 55
20191213024533 40 146 10.0 16.0 0.00 0.02 0.02 55
20191213023018 40 205 8.0 16.0 0.00 0.02 0.02 55
20191213021522 40 211 9.0 17.0 0.00 0.02 0.02 55
20191213020014 40 177 8.0 16.0 0.00 0.02 0.02 55
20191213014539 40 200 6.0 14.0 0.00 0.02 0.02 55
20191213013010 40 236 7.0 12.0 0.00 0.02 0.02 55
20191213011504 40 202 7.0 15.0 0.00 0.02 0.02 55
20191213010002 41 198 6.0 13.0 0.00 0.02 0.02 54
20191213004502 41 184 7.0 12.0 0.00 0.02 0.02 53
20191213001658 42 213 7.0 16.0 0.00 0.02 0.02 51
20191213000300 42 192 6.0 13.0 0.00 0.02 0.02 52
20191212234815 42 155 4.0 14.0 0.00 0.02 0.02 52
20191212233248 42 194 6.0 17.0 0.00 0.02 0.02 52
20191212231655 42 171 8.0 15.0 0.00 0.02 0.02 52
20191212230156 43 162 6.0 12.0 0.00 0.02 0.02 51
20191212224648 43 144 5.0 12.0 0.00 0.02 0.02 50
20191212223200 44 161 5.0 10.0 0.00 0.02 0.02 49
20191212221614 44 162 6.0 11.0 0.00 0.02 0.02 48
20191212220048 44 167 8.0 16.0 0.00 0.02 0.02 47
20191212214534 45 197 6.0 12.0 0.00 0.02 0.02 46
20191212213101 45 196 5.0 14.0 0.00 0.02 0.02 46
20191212211525 45 185 8.0 18.0 0.00 0.02 0.02 45
20191212210033 45 195 9.0 19.0 0.00 0.02 0.02 44
20191212204518 45 191 7.0 17.0 0.00 0.02 0.02 45
20191212203157 45 213 8.0 18.0 0.00 0.02 0.02 45
20191212201725 45 175 7.0 14.0 0.00 0.02 0.02 47
20191212200106 44 167 6.0 14.0 0.00 0.02 0.02 47
20191212194652 44 194 7.0 15.0 0.00 0.02 0.02 48
20191212193107 44 148 6.0 14.0 0.00 0.02 0.02 49
20191212191608 43 137 6.0 17.0 0.00 0.02 0.02 49
20191212190111 42 206 8.0 17.0 0.00 0.02 0.02 51
20191212184611 42 192 9.0 19.0 0.00 0.02 0.02 52
20191212183115 41 200 9.0 20.0 0.00 0.02 0.02 53
20191212181620 41 215 11.0 21.0 0.00 0.02 0.02 52
20191212180052 41 202 13.0 24.0 0.00 0.02 0.02 53
20191212174513 40 180 11.0 22.0 0.00 0.02 0.02 53
20191212173312 40 172 10.0 20.0 0.00 0.02 0.02 54
20191212171748 38 172 9.0 15.0 0.01 0.02 0.02 56
20191212170251 38 173 6.0 18.0 0.02 0.02 0.02 57
20191212164802 38 184 7.0 20.0 0.02 0.02 0.02 57
20191212163206 37 188 10.0 20.0 0.02 0.02 0.02 56
20191212161613 37 200 9.0 19.0 0.01 0.01 0.01 57
20191212160207 36 205 7.0 13.0 0.00 0.00 0.00 60
20191212154601 35 178 7.0 12.0 0.00 0.00 0.00 62
20191212153127 33 165 6.0 10.0 0.00 0.00 0.00 63
20191212151536 33 165 7.0 14.0 0.00 0.00 0.00 64
20191212150026 32 226 6.0 12.0 0.00 0.00 0.00 65
20191212144523 31 149 6.0 12.0 0.00 0.00 0.00 66
20191212143030 30 162 8.0 12.0 0.00 0.00 0.00 67
20191212141829 29 169 6.0 12.0 0.00 0.00 0.00 67
20191212140154 29 163 8.0 14.0 0.00 0.00 0.00 67
20191212134627 29 158 9.0 16.0 0.00 0.00 0.00 66
20191212133221 29 159 7.0 14.0 0.00 0.00 0.00 66
20191212131609 28 155 7.0 16.0 0.00 0.00 0.00 67
20191212130057 27 166 7.0 11.0 0.00 0.00 0.00 68
20191212124604 25 151 5.0 11.0 0.00 0.00 0.00 72
20191212123039 23 131 4.0 7.0 0.00 0.00 0.00 72
20191212121552 22 128 3.0 6.0 0.00 0.00 0.00 71
20191212120025 22 125 2.0 8.0 0.00 0.00 0.00 71
20191212114539 22 121 4.0 7.0 0.00 0.00 0.00 71
20191212113006 21 117 3.0 7.0 0.00 0.00 0.00 70
20191212111508 21 128 3.0 8.0 0.00 0.00 0.00 70
20191212110241 20 132 7.0 10.0 0.00 0.00 0.00 78
20191212104644 17 94 1.0 3.0 0.00 0.00 0.00 71